Overview Statistics Trail Chart Weather Telemetry Raw packets
 

This is the latest recevied weather packets stored in our database for station/object KO4YAW. If no packets are shown the sender has not sent any weather packets the latest 10 day(s).

<< 6 7 8 9 10 11 12 >>
Time Temp. Humidity Pressure Rain* Wind** Luminosity Snow
1788498229 23.33° C 33% 1016.7 hPa 0 mm - 0 W/m² -
1788497329 23.89° C 31% 1016.6 hPa 0 mm - 0 W/m² -
1788496429 23.89° C 31% 1016.6 hPa 0 mm - 0 W/m² -
1788495529 24.44° C 29% 1016.3 hPa 0 mm - 0 W/m² -
1788494629 25° C 29% 1016.3 hPa 0 mm - 0 W/m² -
1788493729 25.56° C 27% 1016 hPa 0 mm - 0 W/m² -
1788492829 26.11° C 25% 1015.8 hPa 0 mm - 0 W/m² -
1788491929 26.67° C 23% 1015.4 hPa 0 mm - 0 W/m² -
1788491029 27.22° C 23% 1015.3 hPa 0 mm - 0 W/m² -
1788490129 27.22° C 23% 1015.2 hPa 0 mm - 0 W/m² -
1788489229 27.22° C 23% 1015.1 hPa 0 mm - 0 W/m² -
1788488329 27.22° C 22% 1014.7 hPa 0 mm - 0 W/m² -
1788487429 25.56° C 27% 1014.6 hPa 0 mm - 0 W/m² -
1788486529 26.67° C 26% 1014.4 hPa 0 mm - 0 W/m² -
1788485629 27.78° C 24% 1014.3 hPa 0 mm - 3 W/m² -
1788484729 29.44° C 22% 1014.1 hPa 0 mm - 10 W/m² -
1788483829 30.56° C 21% 1014.1 hPa 0 mm - 19 W/m² -
1788482929 31.67° C 19% 1014.3 hPa 0 mm - 29 W/m² -
1788482029 32.78° C 18% 1014.3 hPa 0 mm - 96 W/m² -
1788481130 32.78° C 18% 1014.4 hPa 0 mm - 144 W/m² -
1788480229 33.33° C 18% 1014.4 hPa 0 mm - 192 W/m² -
1788479329 33.89° C 17% 1014.6 hPa 0 mm - 243 W/m² -
1788478429 33.89° C 18% 1014.6 hPa 0 mm - 296 W/m² -
1788477529 33.89° C 17% 1014.7 hPa 0 mm - 349 W/m² -
1788476629 34.44° C 17% 1014.9 hPa 0 mm - 393 W/m² -

* Rain since midnight (hover to see other rain measurements)
** Current wind speed in m/s (hover to see current wind gust speed)